Regional Weather Roundup
Issued by NWS Newport/Morehead, NC

Current Version | Previous Version | Text Only | Print | Product List | Glossary Off
Versions: 1 2 3 4 5 6 7 8 9 10 11 12 13 14 15 16 17 18 19 20 21 22 23 24 25 26 27 28 29 30 31 32 33 34 35 36 37 38 39 40 41 42 43 44 45 46 47 48 49 50
000 ASUS42 KMHX 301325 RWRMHX WEATHER ROUNDUP FOR EASTERN NORTH CAROLINA NATIONAL WEATHER SERVICE NEWPORT/MOREHEAD CITY NC 900 AM EDT TUE AUG 30 2016 NOTE: "FAIR" INDICATES FEW OR NO CLOUDS BELOW 12,000 FEET WITH NO SIGNIFICANT WEATHER AND/OR OBSTRUCTIONS TO VISIBILITY NCZ015>017-031-032-045>047-102-103-301400- NORTH COAST CITY SKY/WX TMP DP RH WIND PRES REMARKS EDENTON MOSUNNY 76 76 100 NE7 30.09R ELIZABETH CITY SUNNY 79 74 84 NE12 30.08S KITTY HAWK CLOUDY 80 78 95 NE8 30.06R MANTEO CLOUDY 80 77 91 NE17 30.06S $$ NCZ045>047-081-094-103-104-301400- CENTRAL COAST CITY SKY/WX TMP DP RH WIND PRES REMARKS FRISCO LGT RAIN 78 76 93 NE9 30.02F $$ NCZ095-097-098-100-101-301400- SOUTHERN COAST CITY SKY/WX TMP DP RH WIND PRES REMARKS BEAUFORT LGT RAIN 79 76 90 N10 30.04R CEDAR ISLAND NOT AVBL JACKSONVILLE CLOUDY 74 70 87 N9 30.06S PINEY ISLAND CLOUDY N/A N/A N/A NE15G21 30.03 WILMINGTON MOSUNNY 74 71 91 N7 30.07R $$ NCZ011>013-027>030-043-044-078>080-089-090>093-098-301400- COASTAL PLAIN CITY SKY/WX TMP DP RH WIND PRES REMARKS AHOSKIE SUNNY 75 68 77 N8 30.10F CLINTON SUNNY 75 70 84 NE3 30.09S ELIZABETHTOWN SUNNY 74 70 86 N3 30.09S GOLDSBORO MOSUNNY 73 71 93 NE8 30.08R GREENVILLE CLOUDY 73 70 88 N6 30.10S HAVELOCK CLOUDY 78 74 87 N12 30.07R KENANSVILLE SUNNY 73 70 88 N7 30.09S KINSTON MOSUNNY 73 70 88 N7 30.10R NEW BERN CLOUDY 74 71 91 N9 30.07S RICHLANDS PTSUNNY 73 71 93 N7 30.07S ROCKY MOUNT SUNNY 77 66 68 NE5 30.10F WASHINGTON MOSUNNY 73 71 92 N8 30.08S WHITEVILLE MOSUNNY 74 69 85 NE3 30.08R $$ AMZ130-135-150-152-154-156-158-170-250-252-270-ANZ085-086-088-633-658-670-301400- MARINE OBSERVATIONS STATION/POSITION TIME TEMP WIND PRES WAVE SWELL AIR SEA DIR/SP/G HT/PER HT/PER (UTC) (F) (DEG/KT/KT) (MB) (FT/S) (FT/S) CHESAPEAKE LIGHT NOT AVBL 64 E VA BEACH 1250 81 80 50/ 14/ 17 1018.0 5/13 5/13 DUCK 1300 80 79 40/ 16/ 19 1017.8 2 E DUCK 1211 79 N/A 4/12 2/12 OREGON INLET 1300 80 81 30/ 12/ 15 1017.4 13E OREGON INLT 1300 80 N/A 5/13 5/13 HATTERAS CG 1300 79 82 40/ 6/ 12 1016.5 DIAMOND BUOY 1250 82 84 60/ 14/ 16 1016.0 7/12 7/12 CAPE LOOKOUT 1300 78 10/ 12/ 14 1016.6 BEAUFORT LAB 1300 79 81 10/ 7/ 13 1016.6 30 SE NEW RVR IN 1308 80 84 10/ 16/ 19 1016.6 30 SE NEW RVR IN 1225 84 N/A 5/13 2/13 27 SE WRIGHTSVLE 1308 80 84 360/ 12/ 16 1017.6 5 SE WRIGHTSVLE 1308 77 83 360/ 8/ 12 1019.3 225 S CAPE HAT 1250 83 84 250/ 12/ 14 1016.6 5/10 3/10 41 SE CHARLESTON 1250 82 85 50/ 10/ 12 1016.8 3/12 3/12 $$

USA.gov is the U.S. government's official web portal to all federal, state and local government web resources and services.